Air Resources Laboratory banner image
Air Resources Laboratory web site National Oceanic and Atmospheric Administration (NOAA)

ky zone


NYZ176-178-MAZ106-OHZ011-021-055-MIZ076-KYZ091-ILZ014-INZ047-
MNZ060-ONZ431-181700-

...Gateway Observations for Savannah International...

CITY           SKY/WX    TMP DP  RH WIND       PRES   REMARKS
Savannah Arpt  PTSUNNY   87  74  64 W8        30.12F HX  95
Atlanta        PTSUNNY   82  71  69 W10       30.09F
Charlotte      PTSUNNY   84  74  71 W10       30.04F HX  91
Dallas DFW     MOSUNNY   91  68  46 SW17      29.99F HX  95
Houston Bush   PTSUNNY   89  77  67 W8        30.04F HX 101
Wash National  PTSUNNY   87  70  56 SW9       29.91F HX  92
Wash Dulles    PTSUNNY   80  74  81 S7        29.92F
Baltimore      PTSUNNY   84  72  67 W8        29.89F
Philadelphia   PTSUNNY   84  72  67 SW12      29.86F
Newark         PTSUNNY   85  73  67 W10       29.83F HX  91
Laguardia      PTSUNNY   84  69  60 W7        29.82F
J F K          PTSUNNY   82  76  81 SW9       29.84F
Boston         PTSUNNY   84  70  62 W9        29.78F
Pittsburg      PTSUNNY   74  67  78 W7        29.95S
Akron          CLOUDY    78  69  73 NW8       29.96F
Cleveland      PTSUNNY   79  69  71 N12       29.98S
Cincinnati     PTSUNNY   78  71  79 NW8       29.98S
Columbus       CLOUDY    76  68  76 NW5       29.97S
Detroit        FAIR      81  66  60 NE5       29.99S
Chicago O'Hare FAIR      77  66  68 N14       30.04S
Minneapolis    PTSUNNY   78  65  63 S3        30.08F
Indianapolis   PTSUNNY   78  68  71 N12       29.99S
Toronto Canada PTSUNNY   73  61  64 N8        29.97S


NYZ176-178-MAZ106-OHZ011-021-055-MIZ076-KYZ091-ILZ014-INZ047-
MNZ060-ONZ431-181700-

...Gateway Observations for Savannah International...

CITY           SKY/WX    TMP DP  RH WIND       PRES   REMARKS
Savannah Arpt  PTSUNNY   87  74  64 W8        30.12F HX  95
Atlanta        PTSUNNY   81  71  71 SW12      30.08F
Charlotte      PTSUNNY   84  74  71 W10       30.04F HX  91
Dallas DFW     MOSUNNY   91  68  46 SW17      29.99F HX  95
Houston Bush   PTSUNNY   89  77  67 W8        30.04F HX 101
Wash National  PTSUNNY   87  70  56 SW9       29.91F HX  92
Wash Dulles    PTSUNNY   80  74  81 S7        29.92F
Baltimore      PTSUNNY   84  72  67 W8        29.89F
Philadelphia   PTSUNNY   84  72  67 SW12      29.86F
Newark         PTSUNNY   85  73  67 W10       29.83F HX  91
Laguardia      PTSUNNY   84  69  60 W7        29.82F
J F K          PTSUNNY   82  76  81 SW9       29.84F
Boston         PTSUNNY   84  70  62 W9        29.78F
Pittsburg      PTSUNNY   74  67  78 W7        29.95S
Akron          CLOUDY    78  69  73 NW8       29.96F
Cleveland      PTSUNNY   79  69  71 N12       29.98S
Cincinnati     PTSUNNY   78  71  79 NW8       29.98S
Columbus       CLOUDY    76  67  72 N5        29.96F
Detroit        FAIR      81  66  60 NE5       29.99S
Chicago O'Hare FAIR      77  66  68 N14       30.04S
Minneapolis    PTSUNNY   78  65  63 S3        30.08F
Indianapolis   PTSUNNY   78  67  68 N10       29.99S
Toronto Canada PTSUNNY   73  61  64 N8        29.97S


KYZ103-190700-
Boyd-
Including the city of Ashland
1234 PM EDT Sat Aug 18 2018

.THIS AFTERNOON...Showers and thunderstorms likely. Near steady
temperature in the upper 70s. Southwest winds around 5 mph. Chance
of rain 60 percent.
.TONIGHT...Mostly cloudy. Showers and thunderstorms likely in the
evening, then a slight chance of showers after midnight. Lows in the
upper 60s. Northwest winds around 5 mph in the evening, becoming
light and variable. Chance of rain 60 percent.
.SUNDAY...Partly sunny. Highs in the mid 80s. North winds around
5 mph.
.SUNDAY NIGHT...Partly cloudy. Lows in the mid 60s. Northeast winds
around 5 mph.
.MONDAY...Mostly sunny. A slight chance of showers in the afternoon.
Hot with highs in the upper 80s. East winds around 5 mph, becoming
south around 5 mph in the afternoon. Chance of rain 20 percent.
.MONDAY NIGHT...Mostly cloudy with a chance of showers. Lows around
70. Chance of rain 50 percent.
.TUESDAY...Showers and thunderstorms likely. Highs in the lower 80s.
Chance of rain 60 percent.
.TUESDAY NIGHT...Mostly cloudy with a chance of showers and
thunderstorms. Lows in the mid 60s. Chance of rain 50 percent.
.WEDNESDAY...Partly sunny. Highs in the upper 70s.
.WEDNESDAY NIGHT...Partly cloudy. Lows in the upper 50s.
.THURSDAY THROUGH FRIDAY...Mostly clear. Highs in the lower 80s.
Lows in the upper 50s.


KYZ102-190700-
Carter-
Including the cities of Grayson and Olive Hill
1234 PM EDT Sat Aug 18 2018

.THIS AFTERNOON...Cloudy with a chance of showers and thunderstorms.
Near steady temperature in the upper 70s. West winds around 5 mph.
Chance of rain 50 percent.
.TONIGHT...Mostly cloudy. A chance of showers and thunderstorms in
the evening, then a slight chance of showers after midnight. Lows in
the upper 60s. North winds around 5 mph. Chance of rain 50 percent.
.SUNDAY...Partly sunny. Highs in the lower 80s. North winds around
5 mph.
.SUNDAY NIGHT...Partly cloudy. Lows in the mid 60s. East winds
around 5 mph.
.MONDAY...Partly sunny. A slight chance of showers in the afternoon.
Hot with highs in the mid 80s. East winds around 5 mph, becoming
south around 5 mph in the afternoon. Chance of rain 20 percent.
.MONDAY NIGHT...A chance of thunderstorms in the evening. Mostly
cloudy with a chance of showers. Lows in the upper 60s. Chance of
rain 50 percent.
.TUESDAY...Showers and thunderstorms likely. Highs in the lower 80s.
Chance of rain 60 percent.
.TUESDAY NIGHT...Mostly cloudy with a chance of showers and
thunderstorms. Lows in the mid 60s. Chance of rain 50 percent.
.WEDNESDAY...Partly sunny. Highs in the mid 70s.
.WEDNESDAY NIGHT AND THURSDAY...Partly cloudy. Lows in the upper
50s. Highs in the upper 70s.
.THURSDAY NIGHT AND FRIDAY...Mostly clear. Lows in the upper 50s.
Highs around 80.


KYZ101-190700-
Greenup-
Including the cities of Flatwoods and Greenup
1234 PM EDT Sat Aug 18 2018

.THIS AFTERNOON...Cloudy with a chance of showers and thunderstorms.
Near steady temperature in the upper 70s. West winds around 5 mph.
Chance of rain 50 percent.
.TONIGHT...Mostly cloudy. A chance of showers and thunderstorms in
the evening, then a slight chance of showers after midnight. Lows in
the upper 60s. North winds around 5 mph. Chance of rain 50 percent.
.SUNDAY...Mostly sunny. Highs in the lower 80s. North winds around
5 mph.
.SUNDAY NIGHT...Partly cloudy. Lows in the mid 60s. East winds
around 5 mph.
.MONDAY...Mostly sunny. A slight chance of showers in the afternoon.
Hot with highs in the mid 80s. East winds around 5 mph, becoming
south around 5 mph in the afternoon. Chance of rain 20 percent.
.MONDAY NIGHT...Mostly cloudy with a chance of showers. Lows around
70. Chance of rain 50 percent.
.TUESDAY...Showers and thunderstorms likely. Highs in the lower 80s.
Chance of rain 60 percent.
.TUESDAY NIGHT...A chance of thunderstorms in the evening. Mostly
cloudy with a chance of showers. Lows in the mid 60s. Chance of rain
50 percent.
.WEDNESDAY...Partly sunny. Highs in the mid 70s.
.WEDNESDAY NIGHT...Partly cloudy. Lows in the upper 50s.
.THURSDAY THROUGH FRIDAY...Mostly clear. Highs in the lower 80s.
Lows in the upper 50s.


KYZ105-190700-
Lawrence KY-
Including the city of Louisa
1234 PM EDT Sat Aug 18 2018

.THIS AFTERNOON...Showers and thunderstorms likely. Near steady
temperature in the upper 70s. Southwest winds around 5 mph. Chance
of rain 60 percent.
.TONIGHT...Mostly cloudy. A chance of showers and thunderstorms in
the evening, then a slight chance of showers after midnight. Lows in
the upper 60s. West winds around 5 mph in the evening, becoming
light and variable. Chance of rain 50 percent.
.SUNDAY...Partly sunny. A slight chance of showers in the morning.
Highs in the mid 80s. Light and variable winds, becoming north
around 5 mph in the afternoon. Chance of rain 20 percent.
.SUNDAY NIGHT...Partly cloudy. Lows in the mid 60s. East winds
around 5 mph.
.MONDAY...Mostly sunny. A slight chance of showers in the afternoon.
Hot with highs in the mid 80s. Southeast winds around 5 mph,
becoming south around 5 mph in the afternoon. Chance of rain
20 percent.
.MONDAY NIGHT...A chance of thunderstorms in the evening. Mostly
cloudy with a chance of showers. Lows around 70. Chance of rain
40 percent.
.TUESDAY...Mostly cloudy. A chance of showers and thunderstorms in
the morning, then showers and thunderstorms likely in the afternoon.
Highs in the lower 80s. Chance of rain 60 percent.
.TUESDAY NIGHT...Mostly cloudy with a chance of showers and
thunderstorms. Lows in the mid 60s. Chance of rain 50 percent.
.WEDNESDAY...Partly sunny. Highs in the upper 70s.
.WEDNESDAY NIGHT...Partly cloudy. Lows in the upper 50s.
.THURSDAY THROUGH FRIDAY...Mostly clear. Highs in the lower 80s.
Lows in the upper 50s.